Weather History for Lake Charles, LA

Change the Weather History Date:

Wednesday, December 25, 2013

  Actual Average Record
Temperature  
Mean Temperature 44 °F -  
Max Temperature 55 °F 60 °F 73 °F (2008)
Min Temperature 34 °F 42 °F 32 °F (1998)
Degree Days  
Heating Degree Days 20    
Growing Degree Days 0 (Base 50)    
Moisture  
Dew Point 34 °F    
Average Humidity 76    
Maximum Humidity 87    
Minimum Humidity 41    
Precipitation  
Precipitation 0.00 in - - ()
Sea Level Pressure  
Sea Level Pressure 30.36 in    
Wind  
Wind Speed 4 mph (ENE)    
Max Wind Speed 8 mph    
Max Gust Speed -    
Visibility 10 miles    
Events      
Averages and records for this station are not official NWS values.
T = Trace of Precipitation, MM = Missing Value Source: NWS Daily Summary

Daily Weather History Graph

Daily Weather History Graph

Search for Another Location

Airport:

Trip Planner

Search our weather history database for the weather conditions in past years. The results will help you decide how hot, cold, wet, or windy it might be!

Date:

Astronomy

Dec. 25, 2013 Rise Set
Actual Time 7:06 AM CST 5:19 PM CST
Civil Twilight 6:40 AM CST 5:45 PM CST
Nautical Twilight 6:10 AM CST 6:15 PM CST
Astronomical Twilight 5:41 AM CST 6:44 PM CST
Moon No Moon Rise 12:02 PM CST (12/25)
Length of Visible Light 11h 05m
Length of Day
10h 12m
Waning Gibbous, 48% of the Moon is Illuminated
Dec 25
Waning Gibbous
Jan 1
New
Jan 7
First Quarter
Jan 15
Full
Jan 23
Last Quarter

Hourly Weather History & Observations

Time (CST) Temp. Windchill Dew Point Humidity Pressure Visibility Wind Dir Wind Speed Gust Speed Precip Events Conditions
12:15 AM 38.5 °F 32.7 °F 32.7 °F 80% 30.35 in 10.0 mi East 8.1 mph - N/A   Clear
12:35 AM 38.8 °F 34.6 °F 32.9 °F 79% 30.35 in 10.0 mi East 5.8 mph - N/A   Clear
12:55 AM 38.5 °F 34.1 °F 32.5 °F 79% 30.35 in 10.0 mi East 5.8 mph - N/A   Clear
1:15 AM 37.9 °F 35.5 °F 32.4 °F 80% 30.36 in 10.0 mi East 3.5 mph - N/A   Clear
1:35 AM 37.9 °F 34.4 °F 32.4 °F 80% 30.36 in 10.0 mi ENE 4.6 mph - N/A   Clear
1:55 AM 37.8 °F 34.2 °F 32.2 °F 80% 30.35 in 10.0 mi ENE 4.6 mph - N/A   Clear
2:15 AM 37.6 °F 35.1 °F 32.2 °F 81% 30.35 in 10.0 mi ENE 3.5 mph - N/A   Clear
2:35 AM 37.4 °F 34.9 °F 32.0 °F 81% 30.35 in 10.0 mi ENE 3.5 mph - N/A   Clear
2:55 AM 36.7 °F 34.1 °F 32.0 °F 83% 30.36 in 10.0 mi East 3.5 mph - N/A   Clear
3:15 AM 36.5 °F 33.9 °F 32.0 °F 84% 30.36 in 10.0 mi NE 3.5 mph - N/A   Clear
3:35 AM 36.5 °F 33.9 °F 32.0 °F 84% 30.36 in 10.0 mi NE 3.5 mph - N/A   Clear
3:55 AM 36.0 °F - 31.6 °F 84% 30.36 in 10.0 mi Calm Calm - N/A   Clear
4:15 AM 36.5 °F - 32.0 °F 84% 30.36 in 10.0 mi Calm Calm - N/A   Clear
4:35 AM 36.0 °F 33.3 °F 31.8 °F 85% 30.36 in 10.0 mi ENE 3.5 mph - N/A   Clear
4:55 AM 35.6 °F 32.8 °F 31.6 °F 85% 30.36 in 10.0 mi NE 3.5 mph - N/A   Clear
5:15 AM 35.6 °F 32.8 °F 31.8 °F 86% 30.37 in 10.0 mi ENE 3.5 mph - N/A   Clear
5:35 AM 35.6 °F 32.8 °F 31.5 °F 85% 30.37 in 10.0 mi ENE 3.5 mph - N/A   Clear
5:55 AM 34.7 °F 31.8 °F 31.3 °F 87% 30.37 in 10.0 mi ENE 3.5 mph - N/A   Clear
6:00 AM 35.6 °F - 30.2 °F 81% 30.37 in 10.0 mi Calm Calm - N/A   Clear
6:45 AM 35.6 °F - 32.0 °F 87% 30.37 in 10.0 mi Calm Calm - N/A   Scattered Clouds
7:50 AM 35.6 °F - 32.0 °F 87% 30.40 in 10.0 mi Calm Calm - N/A   Scattered Clouds
8:50 AM 39.2 °F - 32.0 °F 75% 30.40 in 10.0 mi Calm Calm - N/A   Mostly Cloudy
9:45 AM 42.8 °F 39.3 °F 33.8 °F 70% 30.42 in 10.0 mi East 5.8 mph - N/A   Mostly Cloudy
10:58 AM 46.4 °F - 35.6 °F 66% 30.41 in 10.0 mi Calm Calm - N/A   Mostly Cloudy
11:50 AM 48.2 °F - 33.8 °F 58% 30.39 in 10.0 mi Calm Calm - N/A   Scattered Clouds
12:58 PM 53.6 °F - 30.2 °F 41% 30.35 in 10.0 mi Calm Calm - N/A   Scattered Clouds
1:55 PM 53.6 °F - 32.0 °F 44% 30.34 in 10.0 mi NNW 5.8 mph - N/A   Scattered Clouds
2:53 PM 53.6 °F - 32.0 °F 44% 30.33 in 10.0 mi NNE 5.8 mph - N/A   Scattered Clouds
3:56 PM 55.4 °F - 33.8 °F 44% 30.33 in 10.0 mi NE 6.9 mph - N/A   Scattered Clouds
4:55 PM 51.8 °F - 35.6 °F 54% 30.34 in 10.0 mi East 3.5 mph - N/A   Scattered Clouds
5:50 PM 46.4 °F - 37.4 °F 71% 30.34 in 10.0 mi Calm Calm - N/A   Scattered Clouds
6:50 PM 46.4 °F - 37.4 °F 71% 30.34 in 10.0 mi Calm Calm - N/A   Clear
7:57 PM 44.6 °F - 37.4 °F 76% 30.36 in 10.0 mi Calm Calm - N/A   Clear
8:58 PM 44.6 °F - 37.4 °F 76% 30.36 in 10.0 mi Calm Calm - N/A   Clear
9:50 PM 39.2 °F - 35.6 °F 87% 30.37 in 10.0 mi Calm Calm - N/A   Clear
10:15 PM 42.8 °F - 37.8 °F 82% 30.37 in 10.0 mi Calm Calm - N/A   Mostly Cloudy
10:35 PM 43.3 °F - 37.0 °F 78% 30.37 in 10.0 mi Calm Calm - N/A   Overcast
10:55 PM 43.7 °F - 36.5 °F 76% 30.37 in 10.0 mi Calm Calm - N/A   Overcast
11:15 PM 43.2 °F - 36.7 °F 78% 30.37 in 10.0 mi Calm Calm - N/A   Scattered Clouds
11:35 PM 42.4 °F - 36.7 °F 80% 30.38 in 10.0 mi Calm Calm - N/A   Clear
11:55 PM 40.6 °F - 35.8 °F 83% 30.38 in 10.0 mi Calm Calm - N/A   Clear